Tracking 19170 objects as of 22-May-2018
HD Live streaming from Space Station
objects crossing your sky now

DELTA 1 R/B

Track DELTA 1 R/B now!
10-day predictions


NORAD ID: 341
Int'l Code: 1962-029B
Perigee: 950.1 km
Apogee: 5,630.2 km
Inclination: 44.8 °
Period: 157.5 minutes
Semi major axis: 9661 km
RCS: 0.4668 m2 (medium)
Launch date: July 10, 1962
Source: United States (US)
Launch site: AIR FORCE EASTERN TEST RANGE (AFETR)

Note: This is a ROCKET BODY
aabbcc
Your satellite tracking list
Your tracking list is empty




NASA's NSSDC Master Catalog

Two Line Element Set (TLE):
1   341U 62029B   18141.48635375 +.00000033 +00000-0 +55921-3 0  9994
2   341 044.7933 317.7391 2422087 141.2750 278.0759 09.14238965865550
Source of the keplerian elements: AFSPC